This is the latest recevied weather packets stored in our database for station/object KK7KHO. If no packets are shown the sender has not sent any weather packets the latest 10 day(s).
| Time | Temp. | Humidity | Pressure | Rain* | Wind** | Luminosity | Snow |
|---|---|---|---|---|---|---|---|
| 1777783526 | 16.11° C | 71% | 1013.3 hPa | 0 mm | - | 0 W/m² | - |
| 1777783224 | 16.11° C | 70% | 1013.2 hPa | 0 mm | - | 0 W/m² | - |
| 1777782919 | 16.11° C | 71% | 1013.2 hPa | 0 mm | - | 0 W/m² | - |
| 1777782616 | 16.11° C | 71% | 1013 hPa | 0 mm | - | 0 W/m² | - |
| 1777782313 | 16.11° C | 70% | 1013 hPa | 0 mm | - | 0 W/m² | - |
| 1777782010 | 16.11° C | 70% | 1013.2 hPa | 0 mm | - | 0 W/m² | - |
| 1777781707 | 16.11° C | 70% | 1013 hPa | 0 mm | - | 0 W/m² | - |
| 1777781405 | 16.67° C | 69% | 1013.1 hPa | 0 mm | - | 0 W/m² | - |
| 1777781102 | 16.67° C | 68% | 1013 hPa | 0 mm | - | 0 W/m² | - |
| 1777780799 | 16.67° C | 70% | 1013 hPa | 0 mm | - | 0 W/m² | - |
| 1777780495 | 16.67° C | 72% | 1012.8 hPa | 0 mm | - | 0 W/m² | - |
| 1777780193 | 16.11° C | 75% | 1012.8 hPa | 0 mm | - | 0 W/m² | - |
| 1777779890 | 16.67° C | 74% | 1012.7 hPa | 0 mm | - | 0 W/m² | - |
| 1777779587 | 16.67° C | 74% | 1012.7 hPa | 0 mm | - | 1 W/m² | - |
| 1777779284 | 16.67° C | 74% | 1012.5 hPa | 0 mm | - | 1 W/m² | - |
| 1777778982 | 16.67° C | 74% | 1012.6 hPa | 0 mm | - | 2 W/m² | - |
| 1777778681 | 17.22° C | 74% | 1012.4 hPa | 0 mm | - | 3 W/m² | - |
| 1777778378 | 17.22° C | 73% | 1012.5 hPa | 0 mm | - | 5 W/m² | - |
| 1777778076 | 17.22° C | 72% | 1012.3 hPa | 0 mm | - | 7 W/m² | - |
| 1777777772 | 17.78° C | 71% | 1012.4 hPa | 0 mm | - | 10 W/m² | - |
| 1777777468 | 17.78° C | 70% | 1012.4 hPa | 0 mm | - | 12 W/m² | - |
| 1777777165 | 17.78° C | 68% | 1012.3 hPa | 0 mm | - | 15 W/m² | - |
| 1777776862 | 18.33° C | 67% | 1012.2 hPa | 0 mm | - | 18 W/m² | - |
| 1777776560 | 18.33° C | 68% | 1012.3 hPa | 0 mm | - | 21 W/m² | - |
| 1777776256 | 18.89° C | 69% | 1012.2 hPa | 0 mm | - | 24 W/m² | - |
* Rain latest hour (hover to see other rain measurements)
** Current wind speed in m/s (hover to see current wind gust speed)